カタログに戻る

STARLINK-30837

運用中通信VLEO
NORAD 58212·PAYLOAD·🇺🇸 United States

打ち上げ Nov 3, 2023 から Cape Canaveral Space Force Station

Loading…

次のパス (今後24時間)

TLE

最新Source: CelesTrak SupGP

元期: Sep 15, 2026, 02:36 UTC

1 58212C 23170G   26258.10881944 -.00053242  00000+0 -19289-2 0  2585
2 58212  43.0028 204.9007 0001312 270.9992  89.9718 15.27597400    17

AllMySatでSTARLINK-30837をリアルタイム追跡

Download on the App Store